Location: Gro�wechsungen
(51.4926°N, 10.6901°E)
Time: 11:07:02
(UTC+00:00)

Cosmos 2285 Rocket - Pass Details

Date: 18 September 2020
Orbit: 970 x 1000 km, 74.0° (Epoch: 25 October)

Event Time Altitude Azimuth Distance (km) Brightness Sun altitude
Rises 19:33:18 0° 188° (S) 3,653 6.8 -20.0°
Reaches altitude 10° 19:35:51 10° 185° (S) 2,712 6.1 -20.3°
Maximum altitude 19:41:59 59° 108° (ESE) 1,119 4.0 -21.2°
Drops below altitude 10° 19:48:13 10° 30° (NNE) 2,747 6.4 -22.0°
Sets 19:50:48 0° 27° (NNE) 3,704 7.1 -22.3°
